METEOR 2-11 DEB

Satellite information

Favourite Embed

Satellite Type and Status

DEBRISIN ORBIT

Key statistics

Satellite METEOR 2-11 DEB at a glance.

Uptime

14977

Days in orbit

Revolutions

≈ 14.0

Per day

Orbit

LEO

Low Earth Orbit

Inclination

82.5

Latest

Satellite identification and parameters

Extended collection of information and parameters for METEOR 2-11 DEB.

Object identification

Identified? True

Debris? True

Object name: METEOR 2-11 DEB

International designator: 1984-072G

Object number (NORAD): 40705

Object ID (CCSDS): 40705

Country: COMMONWEALTH OF INDEPENDENT STATES (CIS)

Current information (Y/N): Y

RCS size: SMALL

Orbital parameters

Period: 103.112 minutes

Inclination: 82.5199 deg

SMA: 7283.961 km

Apoapsis: 920.491 km

Periapsis: 891.16 km

RAAN: 292.3126 deg

Eccentricy: 0.0020134

Argument of periapsis: 328.6714 deg

Mean anomaly: 31.3252 deg

Mean motion: 13.96533485 rev/day

Mean motion (dot): 0.00001038 rev/day2

B* drag term: 0.00073879 1/REarth

Two-line elements (TLE)

Creation date: July 2, 2025, 5:47 p.m.

Reference frame: TEME

Reference center: EARTH

Epoch: July 2, 2025, 6:19 a.m. UTC

TLE line 0: 0 METEOR 2-11 DEB

TLE line 1: 1 40705U 84072G 25183.26388869 .00001038 00000-0 73879-3 0 9995

TLE line 2: 2 40705 82.5199 292.3126 0020134 328.6714 31.3252 13.96533485538478

Live tracking on map

Real-time ground track for satellite METEOR 2-11 DEB.

In-orbit conjunctions

A list of the most updated potential collisions computed for object METEOR 2-11 DEB.

Target Orbit TCA Probability of collision Miss distance Type
FENGYUN 1C DEB SSO 2024-11-17 13:08:43 0.0001335094 711.0 (m) DEBRIS
FENGYUN 1C DEB SSO 2024-11-16 06:08:56 0.0002882137 537.0 (m) DEBRIS
FENGYUN 1C DEB SSO 2024-11-10 01:53:28 0.0001497135 253.0 (m) DEBRIS

Associated space launch

Second generation soviet meteorological satellite

METEOR 2-11 DEB was lifted into orbit during the mission ‘Tsiklon-3 | Meteor-2 11’, on board a Tsiklon-3 space rocket.

The launch took place on July 5, 1984, 3:35 a.m. from 32/2.

For more information about the launch, click the button.

Launch to space Tsiklon-3 | Meteor-2 11
Tsiklon-3 | Meteor-2 11

Agency: N/A

Status: Launch Successful

Launch date: July 5, 1984, 3:35 a.m. UTC

Rocket: Tsiklon-3

Launch pad: 32/2

Location: Plesetsk Cosmodrome, Russian Federation

...

Latest news about this satellite

There are no fresh news available about this satellite. Check back as we update our databases every day.


Newsletter sign-up

Weekly statistics, charts and insights to help you stay on top of the space industry.